DLH3W EDDF-KIAD

Flight info

Callsign DLH3W
Flight time N/A
Altitude 34000
Route OBOKA3L OBOKA Z29 TORNU DCT VICOT DCT GALSO Q63 ERING L179 UGBET Q60 OKSAW DCT BIBPE DCT TIGWE DCT FELCA DCT FADZU DCT NICXI DCT OFSOX DCT SLANY DCT DIMUS DCT MALOT/M083F360 DCT 54N020W 54N030W 54N040W 53N050W DCT RIKAL/N0491F380 N572A TOPPS DCT KAYCC DCT KYLOH DCT BAF HYPER9
Aircraft A343/H-SDE2E3FGHIJ4J5M1RWXY/LB1D1

Departure

Time N/A
Airport Frankfurt Main Airport (EDDF)

Arrival

Time 2026-05-04 15:43
Airport Washington Dulles International Airport (KIAD)
Time Latitude Longitude Altitude Speed Heading
2026-05-04 10:25 54.10183 -25.70297 36304 ft 459 kts 270°
2026-05-04 10:25 54.10115 -25.81154 36323 ft 459 kts 270°
2026-05-04 10:26 54.10037 -25.92042 36322 ft 459 kts 270°
2026-05-04 10:26 54.09949 -26.02942 36324 ft 459 kts 270°
2026-05-04 10:27 54.09852 -26.13769 36321 ft 459 kts 270°
2026-05-04 10:27 54.09744 -26.24692 36324 ft 459 kts 270°
2026-05-04 10:28 54.09627 -26.35512 36325 ft 458 kts 270°
2026-05-04 10:28 54.09499 -26.46410 36323 ft 458 kts 270°
2026-05-04 10:29 54.09363 -26.57276 36330 ft 458 kts 270°
2026-05-04 10:29 54.09217 -26.68073 36330 ft 458 kts 270°
2026-05-04 10:30 54.09061 -26.78932 36329 ft 458 kts 269°
2026-05-04 10:30 54.08895 -26.89764 36331 ft 457 kts 269°
2026-05-04 10:31 54.08720 -27.00585 36335 ft 456 kts 269°
2026-05-04 10:32 54.08032 -27.38357 36340 ft 456 kts 269°
2026-05-04 10:33 54.07813 -27.49182 36343 ft 455 kts 269°
2026-05-04 10:33 54.07587 -27.59845 36344 ft 454 kts 269°
2026-05-04 10:34 54.07350 -27.70630 36344 ft 454 kts 269°
2026-05-04 10:34 54.07104 -27.81389 36344 ft 454 kts 269°
2026-05-04 10:35 54.06850 -27.92063 36344 ft 454 kts 269°
2026-05-04 10:35 54.06584 -28.02817 36343 ft 454 kts 269°
2026-05-04 10:36 54.06309 -28.13561 36348 ft 454 kts 269°
2026-05-04 10:36 54.06026 -28.24248 36349 ft 454 kts 269°
2026-05-04 10:37 54.05732 -28.34994 36354 ft 454 kts 268°
2026-05-04 10:37 54.05428 -28.45746 36356 ft 454 kts 268°
2026-05-04 10:39 54.04296 -28.83150 36359 ft 452 kts 268°
2026-05-04 10:40 54.03950 -28.93868 36360 ft 452 kts 268°
2026-05-04 10:40 54.03598 -29.04482 36360 ft 452 kts 268°
2026-05-04 10:41 54.03234 -29.15174 36350 ft 452 kts 268°
2026-05-04 10:41 54.02860 -29.25858 36367 ft 451 kts 268°
2026-05-04 10:42 54.02478 -29.36521 36363 ft 451 kts 268°
2026-05-04 10:42 54.02086 -29.47196 36362 ft 451 kts 268°
2026-05-04 10:43 54.01688 -29.57782 36365 ft 451 kts 267°
2026-05-04 10:45 54.00119 -30.00370 36372 ft 450 kts 273°
2026-05-04 10:45 54.00439 -30.11018 36372 ft 450 kts 274°
2026-05-04 10:46 54.00863 -30.21622 36376 ft 450 kts 275°
2026-05-04 10:46 54.01299 -30.32271 36375 ft 450 kts 275°
2026-05-04 10:47 54.01713 -30.42837 36374 ft 451 kts 274°
2026-05-04 10:47 54.02115 -30.53494 36376 ft 451 kts 274°
2026-05-04 10:49 54.03560 -30.94356 36380 ft 451 kts 274°
2026-05-04 10:50 54.03914 -31.04982 36382 ft 453 kts 273°
2026-05-04 10:52 54.05244 -31.47854 36382 ft 454 kts 273°
2026-05-04 10:52 54.05553 -31.58583 36387 ft 454 kts 272°
2026-05-04 10:54 54.06697 -32.01637 36387 ft 456 kts 272°
2026-05-04 10:56 54.07689 -32.44796 36388 ft 457 kts 271°
2026-05-04 10:57 54.07913 -32.55636 36390 ft 457 kts 271°
2026-05-04 10:57 54.08128 -32.66485 36392 ft 457 kts 271°
2026-05-04 10:58 54.08332 -32.77259 36389 ft 457 kts 271°
2026-05-04 10:58 54.08527 -32.88101 36388 ft 457 kts 271°
2026-05-04 10:59 54.08713 -32.98943 36390 ft 458 kts 270°
2026-05-04 10:59 54.08888 -33.09758 36392 ft 458 kts 270°
2026-05-04 11:00 54.09055 -33.20621 36392 ft 458 kts 270°
2026-05-04 11:02 54.09622 -33.64019 36395 ft 459 kts 270°
2026-05-04 11:05 54.10266 -34.45690 36398 ft 460 kts 269°
2026-05-04 11:06 54.10311 -34.56611 36398 ft 460 kts 269°
2026-05-04 11:06 54.10345 -34.67519 36401 ft 460 kts 269°
2026-05-04 11:10 54.10308 -35.44040 36403 ft 462 kts 268°
2026-05-04 11:12 54.10069 -35.87911 36409 ft 464 kts 267°
2026-05-04 11:12 54.09983 -35.98937 36403 ft 464 kts 267°
2026-05-04 11:13 54.09888 -36.09938 36399 ft 464 kts 267°
2026-05-04 11:13 54.09782 -36.20976 36408 ft 465 kts 266°
2026-05-04 11:14 54.09667 -36.31967 36404 ft 466 kts 266°
2026-05-04 11:16 54.09103 -36.76101 36412 ft 466 kts 266°
2026-05-04 11:16 54.08937 -36.87152 36398 ft 467 kts 266°
2026-05-04 11:17 54.08760 -36.98171 36400 ft 467 kts 266°
2026-05-04 11:19 54.07952 -37.42405 36402 ft 467 kts 265°
2026-05-04 11:19 54.07727 -37.53387 36396 ft 466 kts 265°
2026-05-04 11:20 54.07490 -37.64405 36395 ft 466 kts 265°
2026-05-04 11:20 54.07243 -37.75435 36394 ft 466 kts 265°
2026-05-04 11:22 54.06153 -38.19569 36387 ft 465 kts 265°
2026-05-04 11:23 54.05855 -38.30589 36387 ft 465 kts 265°
2026-05-04 11:25 54.04737 -38.69063 36398 ft 466 kts 265°
2026-05-04 11:25 54.04394 -38.80079 36384 ft 465 kts 265°
2026-05-04 11:27 54.02731 -39.29512 36376 ft 465 kts 264°
2026-05-04 11:28 54.02337 -39.40421 36376 ft 463 kts 264°
2026-05-04 11:28 54.02001 -39.49497 36377 ft 462 kts 264°
2026-05-04 11:29 54.01588 -39.60419 36372 ft 463 kts 264°
2026-05-04 11:29 54.01163 -39.71376 36369 ft 465 kts 264°
2026-05-04 11:33 53.97212 -40.47646 36369 ft 462 kts 263°
2026-05-04 11:33 53.96546 -40.58573 36362 ft 464 kts 263°
2026-05-04 11:34 53.95869 -40.69511 36359 ft 465 kts 262°
2026-05-04 11:34 53.95185 -40.80395 36357 ft 465 kts 262°
2026-05-04 11:35 53.94488 -40.91328 36358 ft 465 kts 262°
2026-05-04 11:35 53.93785 -41.02178 36358 ft 465 kts 262°
2026-05-04 11:36 53.93065 -41.13132 36355 ft 465 kts 262°
2026-05-04 11:36 53.92338 -41.24041 36354 ft 465 kts 262°
2026-05-04 11:37 53.91609 -41.34846 36352 ft 462 kts 262°
2026-05-04 11:37 53.90867 -41.45682 36348 ft 462 kts 262°
2026-05-04 11:38 53.90116 -41.56490 36342 ft 464 kts 262°
2026-05-04 11:38 53.89352 -41.67353 36343 ft 464 kts 262°
2026-05-04 11:39 53.88578 -41.78232 36342 ft 464 kts 262°
2026-05-04 11:41 53.85806 -42.16031 36330 ft 461 kts 262°
2026-05-04 11:41 53.84992 -42.26821 36322 ft 461 kts 262°
2026-05-04 11:42 53.84168 -42.37610 36321 ft 461 kts 262°
2026-05-04 11:42 53.83339 -42.48330 36323 ft 461 kts 262°
2026-05-04 11:43 53.82498 -42.59091 36314 ft 459 kts 262°
2026-05-04 11:43 53.81654 -42.69757 36317 ft 459 kts 262°
2026-05-04 11:44 53.80795 -42.80498 36313 ft 459 kts 261°
2026-05-04 11:44 53.79932 -42.91151 36311 ft 459 kts 261°
2026-05-04 11:45 53.79056 -43.01852 36307 ft 458 kts 261°
2026-05-04 11:45 53.78170 -43.12551 36308 ft 457 kts 261°
2026-05-04 11:46 53.77286 -43.23107 36304 ft 455 kts 261°
2026-05-04 11:46 53.76388 -43.33715 36304 ft 456 kts 261°
2026-05-04 11:47 53.75483 -43.44290 36297 ft 458 kts 261°
2026-05-04 11:47 53.74560 -43.54963 36299 ft 458 kts 261°
2026-05-04 11:48 53.73629 -43.65616 36294 ft 458 kts 261°
2026-05-04 11:48 53.72690 -43.76244 36289 ft 455 kts 261°
2026-05-04 11:49 53.71755 -43.86721 36289 ft 452 kts 261°
2026-05-04 11:49 53.70806 -43.97252 36283 ft 452 kts 261°
2026-05-04 11:50 53.69850 -44.07743 36284 ft 452 kts 261°
2026-05-04 11:50 53.68890 -44.18182 36277 ft 452 kts 261°
2026-05-04 11:51 53.67912 -44.28708 36282 ft 453 kts 261°
2026-05-04 11:51 53.66931 -44.39161 36276 ft 452 kts 261°
2026-05-04 11:52 53.65942 -44.49602 36266 ft 450 kts 261°
2026-05-04 11:52 53.64943 -44.60043 36267 ft 450 kts 260°
2026-05-04 11:53 53.63942 -44.70414 36262 ft 450 kts 260°
2026-05-04 11:53 53.62924 -44.80849 36258 ft 450 kts 260°
2026-05-04 11:55 53.58798 -45.22211 36248 ft 447 kts 260°
2026-05-04 11:56 53.57751 -45.32472 36246 ft 448 kts 259°
2026-05-04 11:56 53.56685 -45.42826 36241 ft 448 kts 259°
2026-05-04 11:57 53.55611 -45.53170 36233 ft 447 kts 259°
2026-05-04 11:57 53.54541 -45.63389 36231 ft 445 kts 259°
2026-05-04 11:58 53.53456 -45.73654 36230 ft 445 kts 259°
2026-05-04 11:58 53.52366 -45.83872 36228 ft 445 kts 259°
2026-05-04 11:59 53.51265 -45.94118 36222 ft 445 kts 259°
2026-05-04 11:59 53.50154 -46.04363 36223 ft 445 kts 258°
2026-05-04 12:00 53.49033 -46.14616 36207 ft 446 kts 258°
2026-05-04 12:00 53.47906 -46.24844 36213 ft 448 kts 258°
2026-05-04 12:01 53.46765 -46.35087 36214 ft 448 kts 258°
2026-05-04 12:02 53.42698 -46.71028 36203 ft 448 kts 258°
2026-05-04 12:03 53.41515 -46.81297 36202 ft 448 kts 258°
2026-05-04 12:03 53.40322 -46.91556 36197 ft 448 kts 258°
2026-05-04 12:04 53.39121 -47.01809 36198 ft 448 kts 257°
2026-05-04 12:04 53.37915 -47.12030 36189 ft 449 kts 257°
2026-05-04 12:05 53.36692 -47.22306 36186 ft 449 kts 257°
2026-05-04 12:05 53.35469 -47.32506 36179 ft 449 kts 257°
2026-05-04 12:06 53.34228 -47.42781 36173 ft 450 kts 257°
2026-05-04 12:06 53.32977 -47.53052 36174 ft 450 kts 257°
2026-05-04 12:07 53.31715 -47.63340 36171 ft 450 kts 257°
2026-05-04 12:07 53.30460 -47.73498 36170 ft 450 kts 257°
2026-05-04 12:08 53.29175 -47.83813 36159 ft 451 kts 257°
2026-05-04 12:08 53.27893 -47.94034 36169 ft 451 kts 256°
2026-05-04 12:09 53.26592 -48.04322 36154 ft 453 kts 256°
2026-05-04 12:09 53.25278 -48.14640 36151 ft 453 kts 256°
2026-05-04 12:10 53.23964 -48.24881 36155 ft 453 kts 256°
2026-05-04 12:10 53.22637 -48.35155 36144 ft 453 kts 256°
2026-05-04 12:11 53.21524 -48.43707 36143 ft 453 kts 256°
2026-05-04 12:11 53.20179 -48.53983 36140 ft 453 kts 255°
2026-05-04 12:12 53.18823 -48.64259 36140 ft 453 kts 255°
2026-05-04 12:12 53.17460 -48.74520 36128 ft 453 kts 255°
2026-05-04 12:14 53.11911 -49.15566 36120 ft 455 kts 255°
2026-05-04 12:15 53.10507 -49.25770 36112 ft 455 kts 255°
2026-05-04 12:15 53.09083 -49.36050 36114 ft 455 kts 254°
2026-05-04 12:16 53.07652 -49.46314 36100 ft 455 kts 254°
2026-05-04 12:16 53.06213 -49.56560 36102 ft 454 kts 254°
2026-05-04 12:17 53.04776 -49.66728 36102 ft 453 kts 254°
2026-05-04 12:17 53.03323 -49.76939 36096 ft 453 kts 254°
2026-05-04 12:18 53.01866 -49.87100 36094 ft 454 kts 254°
2026-05-04 12:18 53.00387 -49.97286 36084 ft 453 kts 252°
2026-05-04 12:19 52.98303 -50.07143 36086 ft 451 kts 246°
2026-05-04 12:19 52.96015 -50.16771 36083 ft 451 kts 246°
2026-05-04 12:20 52.93664 -50.26438 36083 ft 451 kts 246°
2026-05-04 12:20 52.91328 -50.36026 36072 ft 450 kts 246°
2026-05-04 12:21 52.88982 -50.45653 36072 ft 450 kts 246°
2026-05-04 12:21 52.86628 -50.55288 36070 ft 450 kts 246°
2026-05-04 12:22 52.84282 -50.64846 36070 ft 450 kts 246°
2026-05-04 12:22 52.81918 -50.74439 36081 ft 449 kts 246°
2026-05-04 12:23 52.79556 -50.83978 36064 ft 448 kts 246°
2026-05-04 12:23 52.77176 -50.93541 36060 ft 448 kts 246°
2026-05-04 12:24 52.74811 -51.03007 36060 ft 448 kts 246°
2026-05-04 12:24 52.72421 -51.12535 36059 ft 448 kts 246°
2026-05-04 12:25 52.70043 -51.21975 36056 ft 448 kts 246°
2026-05-04 12:25 52.67645 -51.31454 36051 ft 445 kts 246°
2026-05-04 12:26 52.65262 -51.40830 36049 ft 445 kts 246°
2026-05-04 12:26 52.62860 -51.50243 36046 ft 445 kts 246°
2026-05-04 12:27 52.60462 -51.59601 36049 ft 445 kts 246°
2026-05-04 12:27 52.58053 -51.68967 36040 ft 445 kts 246°
2026-05-04 12:28 52.55636 -51.78322 36040 ft 443 kts 246°
2026-05-04 12:28 52.53217 -51.87644 36045 ft 443 kts 246°
2026-05-04 12:29 52.50803 -51.96911 36040 ft 443 kts 246°
2026-05-04 12:29 52.48367 -52.06225 36037 ft 443 kts 246°
2026-05-04 12:30 52.45930 -52.15502 36036 ft 443 kts 246°
2026-05-04 12:30 52.43493 -52.24740 36034 ft 443 kts 246°
2026-05-04 12:31 52.41034 -52.34030 36034 ft 443 kts 246°
2026-05-04 12:31 52.38592 -52.43214 36033 ft 442 kts 246°
2026-05-04 12:32 52.34883 -52.57093 36036 ft 443 kts 245°
2026-05-04 12:33 52.32419 -52.66270 36028 ft 442 kts 246°
2026-05-04 12:33 52.29942 -52.75453 36033 ft 440 kts 246°
2026-05-04 12:34 52.27466 -52.84601 36032 ft 440 kts 245°
2026-05-04 12:34 52.24979 -52.93753 36038 ft 440 kts 245°
2026-05-04 12:35 52.22503 -53.02829 36026 ft 440 kts 245°
2026-05-04 12:35 52.20006 -53.11943 36022 ft 439 kts 245°
2026-05-04 12:36 52.17505 -53.21037 36026 ft 437 kts 245°
2026-05-04 12:36 52.15023 -53.30026 36022 ft 437 kts 245°
2026-05-04 12:37 52.12519 -53.39059 36021 ft 437 kts 245°
2026-05-04 12:37 52.10007 -53.48089 36018 ft 437 kts 245°
2026-05-04 12:38 52.07489 -53.57102 36018 ft 437 kts 245°
2026-05-04 12:38 52.04989 -53.66018 36017 ft 435 kts 245°
2026-05-04 12:39 52.02469 -53.74973 36022 ft 435 kts 245°
2026-05-04 12:39 51.99944 -53.83911 36022 ft 435 kts 245°
2026-05-04 12:40 51.97414 -53.92830 36021 ft 435 kts 245°
2026-05-04 12:40 51.94894 -54.01681 36035 ft 435 kts 245°
2026-05-04 12:41 51.92354 -54.10571 36018 ft 432 kts 245°
2026-05-04 12:41 51.89825 -54.19389 36024 ft 431 kts 245°
2026-05-04 12:42 51.87308 -54.28131 36013 ft 431 kts 245°
2026-05-04 12:42 51.84765 -54.36932 36018 ft 431 kts 245°
2026-05-04 12:43 51.82217 -54.45718 36018 ft 431 kts 245°
2026-05-04 12:43 51.79560 -54.54344 36298 ft 430 kts 240°
2026-05-04 12:43 51.78042 -54.58530 36418 ft 432 kts 240°
2026-05-04 12:44 51.76482 -54.62720 36541 ft 434 kts 239°
2026-05-04 12:44 51.74925 -54.66833 36680 ft 435 kts 239°
2026-05-04 12:44 51.73337 -54.71001 36825 ft 436 kts 239°
2026-05-04 12:44 51.71745 -54.75168 36972 ft 437 kts 239°
2026-05-04 12:45 51.70147 -54.79348 37120 ft 438 kts 239°
2026-05-04 12:45 51.68545 -54.83537 37269 ft 438 kts 239°
2026-05-04 12:45 51.66943 -54.87728 37416 ft 439 kts 239°
2026-05-04 12:45 51.65342 -54.91911 37682 ft 437 kts 239°
2026-05-04 12:46 51.63746 -54.96076 37906 ft 436 kts 239°
2026-05-04 12:46 51.60560 -55.04376 38011 ft 438 kts 239°
2026-05-04 12:47 51.57365 -55.12668 38018 ft 433 kts 239°
2026-05-04 12:47 51.54187 -55.20892 38029 ft 432 kts 238°
2026-05-04 12:48 51.51030 -55.29033 38013 ft 432 kts 239°
2026-05-04 12:48 51.47861 -55.37180 38016 ft 428 kts 238°
2026-05-04 12:49 51.44704 -55.45271 38016 ft 427 kts 238°
2026-05-04 12:49 51.41562 -55.53297 38015 ft 427 kts 238°
2026-05-04 12:50 51.38397 -55.61358 38018 ft 427 kts 238°
2026-05-04 12:50 51.35226 -55.69408 38021 ft 426 kts 238°
2026-05-04 12:51 51.32074 -55.77385 38018 ft 423 kts 238°
2026-05-04 12:51 51.28944 -55.85282 38018 ft 422 kts 238°
2026-05-04 12:52 51.25793 -55.93209 38018 ft 422 kts 238°
2026-05-04 12:52 51.22648 -56.01094 38017 ft 422 kts 238°
2026-05-04 12:53 51.19485 -56.09004 38017 ft 422 kts 238°
2026-05-04 12:53 51.16860 -56.15548 38013 ft 421 kts 238°
2026-05-04 12:54 51.13694 -56.23419 38013 ft 421 kts 238°
2026-05-04 12:54 51.10543 -56.31228 38013 ft 421 kts 238°
2026-05-04 12:55 51.07372 -56.39065 37993 ft 421 kts 238°
2026-05-04 12:55 51.04192 -56.46898 38043 ft 421 kts 237°
2026-05-04 12:56 51.01025 -56.54677 38007 ft 422 kts 237°
2026-05-04 12:56 50.97825 -56.62514 38010 ft 422 kts 237°
2026-05-04 12:57 50.94622 -56.70334 38002 ft 422 kts 237°
2026-05-04 12:57 50.91417 -56.78136 38005 ft 422 kts 237°
2026-05-04 12:58 50.88227 -56.85877 38000 ft 420 kts 237°
2026-05-04 12:58 50.85033 -56.93605 37999 ft 418 kts 237°
2026-05-04 12:59 50.81838 -57.01313 38000 ft 418 kts 237°
2026-05-04 12:59 50.78658 -57.08964 37996 ft 418 kts 237°
2026-05-04 13:00 50.75457 -57.16641 38000 ft 418 kts 237°
2026-05-04 13:00 50.72244 -57.24325 38003 ft 416 kts 237°
2026-05-04 13:01 50.69052 -57.31935 38003 ft 415 kts 237°
2026-05-04 13:01 50.65879 -57.39480 37996 ft 415 kts 236°
2026-05-04 13:02 50.62681 -57.47060 37997 ft 415 kts 236°
2026-05-04 13:02 50.59495 -57.54591 38004 ft 415 kts 236°
2026-05-04 13:03 50.56288 -57.62150 37994 ft 413 kts 236°
2026-05-04 13:03 50.53085 -57.69678 37991 ft 413 kts 236°
2026-05-04 13:04 50.49902 -57.77137 37994 ft 414 kts 236°
2026-05-04 13:04 50.46681 -57.84663 37985 ft 414 kts 236°
2026-05-04 13:05 50.43456 -57.92179 37983 ft 414 kts 236°
2026-05-04 13:05 50.40231 -57.99672 37983 ft 414 kts 236°
2026-05-04 13:06 50.37023 -58.07103 37985 ft 413 kts 236°
2026-05-04 13:06 50.33789 -58.14575 37984 ft 413 kts 236°
2026-05-04 13:07 50.30569 -58.21992 37980 ft 413 kts 236°
2026-05-04 13:07 50.27333 -58.29427 37971 ft 413 kts 235°
2026-05-04 13:08 50.24091 -58.36853 37979 ft 412 kts 235°
2026-05-04 13:08 50.20872 -58.44207 37979 ft 412 kts 235°
2026-05-04 13:09 50.17624 -58.51605 37978 ft 412 kts 235°
2026-05-04 13:09 50.14368 -58.59003 37972 ft 412 kts 235°
2026-05-04 13:10 50.11135 -58.66325 37977 ft 412 kts 235°
2026-05-04 13:10 50.07885 -58.73667 37978 ft 410 kts 235°
2026-05-04 13:11 50.04634 -58.80990 37979 ft 410 kts 235°
2026-05-04 13:11 50.01402 -58.88252 37973 ft 410 kts 235°
2026-05-04 13:12 49.98141 -58.95556 37975 ft 411 kts 234°
2026-05-04 13:12 49.94874 -59.02857 37968 ft 410 kts 234°
2026-05-04 13:13 49.91632 -59.10080 37971 ft 409 kts 234°
2026-05-04 13:13 49.88378 -59.17310 37972 ft 409 kts 234°
2026-05-04 13:14 49.85109 -59.24554 37975 ft 409 kts 234°
2026-05-04 13:14 49.81861 -59.31730 37974 ft 409 kts 234°
2026-05-04 13:15 49.78589 -59.38943 37975 ft 408 kts 234°
2026-05-04 13:15 49.75322 -59.46122 37970 ft 407 kts 234°
2026-05-04 13:16 49.72096 -59.53195 37972 ft 407 kts 234°
2026-05-04 13:16 49.68802 -59.60396 37972 ft 407 kts 234°
2026-05-04 13:17 49.65549 -59.67487 37972 ft 407 kts 234°
2026-05-04 13:17 49.62274 -59.74611 37980 ft 406 kts 233°
2026-05-04 13:18 49.59001 -59.81707 37979 ft 405 kts 233°
2026-05-04 13:18 49.55745 -59.88749 37976 ft 405 kts 233°
2026-05-04 13:19 49.52466 -59.95822 37980 ft 405 kts 233°
2026-05-04 13:19 49.49181 -60.02890 37980 ft 405 kts 233°
2026-05-04 13:20 49.45916 -60.09897 37984 ft 406 kts 233°
2026-05-04 13:20 49.42617 -60.16955 37975 ft 406 kts 233°
2026-05-04 13:21 49.39312 -60.24011 37971 ft 406 kts 233°
2026-05-04 13:21 49.35998 -60.31066 37977 ft 406 kts 233°
2026-05-04 13:22 49.32711 -60.38046 37972 ft 406 kts 232°
2026-05-04 13:22 49.29378 -60.45105 37976 ft 408 kts 232°
2026-05-04 13:23 49.26038 -60.52158 37973 ft 408 kts 232°
2026-05-04 13:23 49.22710 -60.59168 37975 ft 408 kts 232°
2026-05-04 13:24 49.19365 -60.66195 37970 ft 409 kts 232°
2026-05-04 13:24 49.16025 -60.73195 37971 ft 410 kts 232°
2026-05-04 13:25 49.10953 -60.83785 37962 ft 412 kts 232°
2026-05-04 13:25 49.07556 -60.90858 37960 ft 412 kts 232°
2026-05-04 13:26 49.04160 -60.97911 37956 ft 412 kts 232°
2026-05-04 13:26 49.00771 -61.04929 37954 ft 412 kts 231°
2026-05-04 13:27 48.97355 -61.11983 37954 ft 414 kts 231°
2026-05-04 13:27 48.93943 -61.19013 37950 ft 414 kts 231°
2026-05-04 13:28 48.90499 -61.26088 37952 ft 415 kts 231°
2026-05-04 13:28 48.87079 -61.33098 37946 ft 415 kts 231°
2026-05-04 13:29 48.83626 -61.40155 37944 ft 415 kts 232°
2026-05-04 13:29 48.80183 -61.47174 37938 ft 414 kts 231°
2026-05-04 13:30 48.76745 -61.54164 37939 ft 414 kts 231°
2026-05-04 13:30 48.73296 -61.61158 37933 ft 414 kts 231°
2026-05-04 13:31 48.69832 -61.68164 37926 ft 414 kts 231°
2026-05-04 13:31 48.66375 -61.75140 37927 ft 412 kts 231°
2026-05-04 13:32 48.62949 -61.82033 37922 ft 412 kts 231°
2026-05-04 13:32 48.59502 -61.88952 37922 ft 412 kts 231°
2026-05-04 13:33 48.56044 -61.95873 37920 ft 412 kts 231°
2026-05-04 13:33 48.52591 -62.02769 37918 ft 411 kts 231°
2026-05-04 13:34 48.49166 -62.09591 37917 ft 409 kts 231°
2026-05-04 13:34 48.45728 -62.16421 37914 ft 409 kts 231°
2026-05-04 13:35 48.40568 -62.26640 37914 ft 409 kts 231°
2026-05-04 13:36 48.37105 -62.33477 37903 ft 411 kts 231°
2026-05-04 13:36 48.33659 -62.40262 37911 ft 410 kts 231°
2026-05-04 13:37 48.30183 -62.47090 37892 ft 410 kts 230°
2026-05-04 13:37 48.27292 -62.52755 37906 ft 410 kts 230°
2026-05-04 13:38 48.23246 -62.60663 37897 ft 410 kts 230°
2026-05-04 13:38 48.20351 -62.66309 37886 ft 410 kts 230°
2026-05-04 13:39 48.16866 -62.73090 37897 ft 409 kts 230°
2026-05-04 13:39 48.13405 -62.79805 37883 ft 409 kts 230°
2026-05-04 13:40 48.09922 -62.86547 37889 ft 409 kts 230°
2026-05-04 13:40 48.06436 -62.93278 37875 ft 409 kts 230°
2026-05-04 13:41 48.02970 -62.99956 37870 ft 409 kts 230°
2026-05-04 13:41 47.99477 -63.06667 37867 ft 409 kts 230°
2026-05-04 13:42 47.94193 -63.16786 37866 ft 413 kts 230°
2026-05-04 13:42 47.90674 -63.23507 37864 ft 413 kts 230°
2026-05-04 13:43 47.87134 -63.30250 37859 ft 413 kts 230°
2026-05-04 13:43 47.83583 -63.36999 37859 ft 413 kts 230°
2026-05-04 13:44 47.80051 -63.43693 37856 ft 413 kts 230°
2026-05-04 13:44 47.76498 -63.50411 37856 ft 413 kts 230°
2026-05-04 13:45 47.72942 -63.57118 37854 ft 412 kts 229°
2026-05-04 13:45 47.69389 -63.63804 37851 ft 412 kts 229°
2026-05-04 13:46 47.65853 -63.70439 37848 ft 412 kts 229°
2026-05-04 13:46 47.62287 -63.77115 37848 ft 412 kts 229°
2026-05-04 13:47 47.58726 -63.83767 37846 ft 412 kts 229°
2026-05-04 13:47 47.55184 -63.90367 37842 ft 411 kts 229°
2026-05-04 13:48 47.51615 -63.97001 37842 ft 411 kts 229°
2026-05-04 13:48 47.48042 -64.03625 37834 ft 411 kts 229°
2026-05-04 13:49 47.44467 -64.10237 37834 ft 411 kts 229°
2026-05-04 13:49 47.40905 -64.16810 37833 ft 412 kts 229°
2026-05-04 13:50 47.37303 -64.23439 37852 ft 413 kts 228°
2026-05-04 13:50 47.33713 -64.30032 37828 ft 416 kts 228°
2026-05-04 13:51 47.30073 -64.36698 37825 ft 417 kts 228°
2026-05-04 13:51 47.26431 -64.43355 37805 ft 417 kts 228°
2026-05-04 13:52 47.20950 -64.53340 37801 ft 418 kts 228°
2026-05-04 13:53 47.17309 -64.59954 37806 ft 418 kts 228°
2026-05-04 13:53 47.13659 -64.66569 37807 ft 418 kts 228°
2026-05-04 13:54 47.08148 -64.76523 37801 ft 419 kts 227°
2026-05-04 13:55 47.02615 -64.86479 37795 ft 421 kts 227°
2026-05-04 13:55 46.97057 -64.96448 37796 ft 421 kts 227°
2026-05-04 13:56 46.93343 -65.03088 37799 ft 421 kts 227°
2026-05-04 13:57 46.87777 -65.13009 37798 ft 422 kts 227°
2026-05-04 13:58 46.80320 -65.26246 37800 ft 423 kts 227°
2026-05-04 13:58 46.74700 -65.36182 37791 ft 423 kts 227°
2026-05-04 13:59 46.70942 -65.42805 37787 ft 423 kts 227°
2026-05-04 14:00 46.65326 -65.52671 37781 ft 423 kts 227°
2026-05-04 14:00 46.59675 -65.62565 37765 ft 423 kts 227°
2026-05-04 14:01 46.55920 -65.69118 37761 ft 424 kts 227°
2026-05-04 14:02 46.50259 -65.78970 37777 ft 423 kts 227°
2026-05-04 14:02 46.46473 -65.85539 37764 ft 424 kts 227°
2026-05-04 14:03 46.42700 -65.92071 37755 ft 424 kts 227°
2026-05-04 14:03 46.38885 -65.98659 37753 ft 424 kts 227°
2026-05-04 14:04 46.33191 -66.08462 37749 ft 425 kts 227°
2026-05-04 14:04 46.29394 -66.14980 37767 ft 425 kts 227°
2026-05-04 14:05 46.23653 -66.24805 37745 ft 426 kts 227°
2026-05-04 14:06 46.19817 -66.31351 37737 ft 426 kts 227°
2026-05-04 14:06 46.16002 -66.37847 37731 ft 426 kts 227°
2026-05-04 14:07 46.12157 -66.44378 37722 ft 427 kts 227°
2026-05-04 14:07 46.08329 -66.50864 37728 ft 427 kts 226°
2026-05-04 14:08 46.04470 -66.57387 37730 ft 427 kts 226°
2026-05-04 14:08 46.00629 -66.63865 37728 ft 427 kts 226°
2026-05-04 14:09 45.94825 -66.73625 37723 ft 427 kts 226°
2026-05-04 14:10 45.89036 -66.83324 37722 ft 427 kts 226°
2026-05-04 14:10 45.85151 -66.89816 37729 ft 427 kts 226°
2026-05-04 14:11 45.81289 -66.96253 37727 ft 428 kts 226°
2026-05-04 14:11 45.75432 -67.05985 37725 ft 430 kts 226°
2026-05-04 14:12 45.71527 -67.12456 37724 ft 432 kts 226°
2026-05-04 14:13 45.65627 -67.22205 37725 ft 433 kts 226°
2026-05-04 14:13 45.61674 -67.28718 37724 ft 434 kts 226°
2026-05-04 14:14 45.57708 -67.35238 37724 ft 434 kts 226°
2026-05-04 14:14 45.51777 -67.44958 37722 ft 434 kts 226°
2026-05-04 14:15 45.43829 -67.57929 37723 ft 435 kts 226°
2026-05-04 14:16 45.37837 -67.67670 37721 ft 435 kts 226°
2026-05-04 14:17 45.31873 -67.77464 37719 ft 437 kts 229°
2026-05-04 14:18 45.26329 -67.87749 37745 ft 438 kts 230°
2026-05-04 14:19 45.18875 -68.01478 37717 ft 441 kts 230°
2026-05-04 14:19 45.15087 -68.08339 37714 ft 441 kts 230°
2026-05-04 14:20 45.11322 -68.15138 37714 ft 441 kts 230°
2026-05-04 14:20 45.07525 -68.21983 37723 ft 441 kts 230°
2026-05-04 14:21 45.01853 -68.32181 37718 ft 441 kts 230°
2026-05-04 14:21 44.98038 -68.39020 37716 ft 441 kts 230°
2026-05-04 14:22 44.94868 -68.44689 37719 ft 442 kts 230°
2026-05-04 14:22 44.90436 -68.52600 37734 ft 442 kts 230°
2026-05-04 14:23 44.85336 -68.61672 37748 ft 441 kts 230°
2026-05-04 14:24 44.81528 -68.68428 37737 ft 443 kts 230°
2026-05-04 14:24 44.77679 -68.75239 37739 ft 443 kts 230°
2026-05-04 14:25 44.73856 -68.81990 37740 ft 443 kts 230°
2026-05-04 14:25 44.68073 -68.92171 37737 ft 443 kts 230°
2026-05-04 14:26 44.64236 -68.98907 37737 ft 443 kts 230°
2026-05-04 14:26 44.60368 -69.05679 37739 ft 443 kts 230°
2026-05-04 14:27 44.56505 -69.12428 37739 ft 443 kts 230°
2026-05-04 14:27 44.52658 -69.19133 37741 ft 443 kts 230°
2026-05-04 14:28 44.48782 -69.25872 37739 ft 443 kts 230°
2026-05-04 14:28 44.44928 -69.32557 37760 ft 443 kts 230°
2026-05-04 14:29 44.37123 -69.46049 37733 ft 446 kts 230°
2026-05-04 14:30 44.33211 -69.52789 37754 ft 446 kts 230°
2026-05-04 14:31 44.27361 -69.62837 37755 ft 446 kts 230°
2026-05-04 14:32 44.19512 -69.76264 37758 ft 447 kts 230°
2026-05-04 14:32 44.15573 -69.82978 37754 ft 447 kts 230°
2026-05-04 14:33 44.11624 -69.89694 37761 ft 448 kts 230°
2026-05-04 14:33 44.07692 -69.96365 37767 ft 448 kts 230°
2026-05-04 14:34 44.03734 -70.03064 37777 ft 448 kts 230°
2026-05-04 14:34 43.99768 -70.09762 37756 ft 449 kts 230°
2026-05-04 14:35 43.95809 -70.16433 37751 ft 449 kts 230°
2026-05-04 14:35 43.91826 -70.23128 37759 ft 449 kts 230°
2026-05-04 14:36 43.87846 -70.29804 37759 ft 449 kts 230°
2026-05-04 14:36 43.83886 -70.36429 37754 ft 449 kts 230°
2026-05-04 14:37 43.79896 -70.43090 37765 ft 448 kts 230°
2026-05-04 14:37 43.75907 -70.49734 37771 ft 448 kts 230°
2026-05-04 14:38 43.71934 -70.56337 37768 ft 448 kts 230°
2026-05-04 14:38 43.67936 -70.62965 37773 ft 448 kts 230°
2026-05-04 14:39 43.63930 -70.69592 37781 ft 448 kts 230°
2026-05-04 14:39 43.59946 -70.76167 37778 ft 448 kts 230°
2026-05-04 14:40 43.53651 -70.85706 37780 ft 449 kts 220°
2026-05-04 14:40 43.48424 -70.90453 37786 ft 450 kts 212°
2026-05-04 14:41 43.43001 -70.94709 37764 ft 451 kts 211°
2026-05-04 14:42 43.32077 -71.03117 37768 ft 450 kts 211°
2026-05-04 14:42 43.26606 -71.07360 37762 ft 450 kts 212°
2026-05-04 14:43 43.21147 -71.11595 37771 ft 450 kts 212°
2026-05-04 14:43 43.15712 -71.15800 37778 ft 450 kts 211°
2026-05-04 14:44 43.10244 -71.20027 37779 ft 450 kts 212°
2026-05-04 14:44 43.05315 -71.25175 37792 ft 446 kts 227°
2026-05-04 14:45 43.01300 -71.31644 37794 ft 446 kts 231°
2026-05-04 14:45 42.97383 -71.38237 37795 ft 446 kts 231°
2026-05-04 14:46 42.93494 -71.44767 37793 ft 446 kts 231°
2026-05-04 14:46 42.89570 -71.51339 37779 ft 446 kts 231°
2026-05-04 14:47 42.85644 -71.57900 37813 ft 446 kts 231°
2026-05-04 14:47 42.81714 -71.64453 37806 ft 446 kts 231°
2026-05-04 14:48 42.77797 -71.70969 37809 ft 446 kts 231°
2026-05-04 14:48 42.73854 -71.77515 37815 ft 446 kts 231°
2026-05-04 14:49 42.69925 -71.84023 37821 ft 446 kts 231°
2026-05-04 14:49 42.65982 -71.90540 37823 ft 445 kts 231°
2026-05-04 14:50 42.62031 -71.97055 37821 ft 446 kts 231°
2026-05-04 14:50 42.58095 -72.03532 37823 ft 446 kts 231°
2026-05-04 14:51 42.54164 -72.09986 37826 ft 445 kts 231°
2026-05-04 14:51 42.50208 -72.16467 37833 ft 445 kts 231°
2026-05-04 14:52 42.46245 -72.22944 37840 ft 445 kts 231°
2026-05-04 14:52 42.42304 -72.29372 37839 ft 445 kts 232°
2026-05-04 14:53 42.38337 -72.35830 37842 ft 445 kts 231°
2026-05-04 14:53 42.34369 -72.42274 37833 ft 445 kts 231°
2026-05-04 14:54 42.30429 -72.48658 37832 ft 445 kts 231°
2026-05-04 14:54 42.26450 -72.55092 37826 ft 445 kts 232°
2026-05-04 14:55 42.22480 -72.61499 37842 ft 444 kts 232°
2026-05-04 14:55 42.18536 -72.67849 37870 ft 444 kts 232°
2026-05-04 14:56 42.14589 -72.74254 37870 ft 443 kts 233°
2026-05-04 14:56 42.10794 -72.80811 37867 ft 443 kts 233°
2026-05-04 14:57 42.06992 -72.87347 37868 ft 442 kts 233°
2026-05-04 14:57 42.03204 -72.93820 37868 ft 442 kts 233°
2026-05-04 14:58 41.99379 -73.00334 37881 ft 444 kts 233°
2026-05-04 14:58 41.96186 -73.05757 37866 ft 445 kts 233°
2026-05-04 14:59 41.91692 -73.13373 37898 ft 444 kts 233°
2026-05-04 15:00 41.85950 -73.23057 37905 ft 443 kts 233°
2026-05-04 15:00 41.82098 -73.29539 37897 ft 443 kts 233°
2026-05-04 15:01 41.76335 -73.39227 37905 ft 443 kts 233°
2026-05-04 15:01 41.72491 -73.45673 37905 ft 442 kts 233°
2026-05-04 15:02 41.68641 -73.52116 37908 ft 442 kts 233°
2026-05-04 15:02 41.64795 -73.58539 37914 ft 442 kts 233°
2026-05-04 15:03 41.60957 -73.64936 37918 ft 443 kts 233°
2026-05-04 15:03 41.57087 -73.71371 37921 ft 442 kts 233°
2026-05-04 15:04 41.53248 -73.77742 37923 ft 442 kts 233°
2026-05-04 15:04 41.49188 -73.83927 37923 ft 444 kts 228°
2026-05-04 15:05 41.44870 -73.89754 37911 ft 443 kts 228°
2026-05-04 15:05 41.41251 -73.94621 37923 ft 443 kts 228°
2026-05-04 15:06 41.36915 -74.00448 37937 ft 442 kts 228°
2026-05-04 15:07 41.30404 -74.09182 37938 ft 443 kts 228°
2026-05-04 15:07 41.26095 -74.14947 37944 ft 441 kts 228°
2026-05-04 15:08 41.21762 -74.20734 37945 ft 440 kts 228°
2026-05-04 15:08 41.17875 -74.26955 37952 ft 435 kts 240°
2026-05-04 15:09 41.14726 -74.33769 37951 ft 435 kts 240°
2026-05-04 15:09 41.11572 -74.40645 37949 ft 436 kts 240°
2026-05-04 15:10 41.06830 -74.50917 37954 ft 435 kts 240°
2026-05-04 15:11 41.02075 -74.61174 37958 ft 435 kts 240°
2026-05-04 15:11 40.98903 -74.67996 37958 ft 435 kts 240°
2026-05-04 15:12 40.95720 -74.74826 37949 ft 435 kts 240°
2026-05-04 15:12 40.92542 -74.81631 37967 ft 434 kts 240°
2026-05-04 15:13 40.89387 -74.88383 37971 ft 433 kts 240°
2026-05-04 15:13 40.86192 -74.95175 37970 ft 434 kts 240°
2026-05-04 15:14 40.83022 -75.01906 37970 ft 434 kts 240°
2026-05-04 15:14 40.79824 -75.08685 37947 ft 434 kts 240°
2026-05-04 15:15 40.76622 -75.15459 37979 ft 434 kts 240°
2026-05-04 15:15 40.73436 -75.22181 37981 ft 433 kts 240°
2026-05-04 15:16 40.68631 -75.32297 37961 ft 434 kts 240°
2026-05-04 15:17 40.63930 -75.42447 37961 ft 433 kts 243°
2026-05-04 15:17 40.59529 -75.52810 38001 ft 433 kts 243°
2026-05-04 15:18 40.56554 -75.59722 38000 ft 433 kts 243°
2026-05-04 15:19 40.52097 -75.70020 37994 ft 433 kts 243°
2026-05-04 15:19 40.47606 -75.80351 38003 ft 433 kts 243°
2026-05-04 15:20 40.44569 -75.87199 37611 ft 434 kts 239°
2026-05-04 15:20 40.42696 -75.90334 36915 ft 440 kts 230°
2026-05-04 15:20 40.40520 -75.93195 36181 ft 444 kts 228°
2026-05-04 15:21 40.38309 -75.95980 35480 ft 446 kts 229°
2026-05-04 15:21 40.36063 -75.98805 34799 ft 448 kts 229°
2026-05-04 15:21 40.31545 -76.04505 33331 ft 450 kts 229°
2026-05-04 15:22 40.29278 -76.07368 32428 ft 453 kts 229°
2026-05-04 15:22 40.27027 -76.10210 31551 ft 456 kts 229°
2026-05-04 15:22 40.22438 -76.15996 29711 ft 461 kts 230°
2026-05-04 15:23 40.20117 -76.18920 28691 ft 462 kts 230°
2026-05-04 15:23 40.17798 -76.21836 27947 ft 458 kts 230°
2026-05-04 15:23 40.15508 -76.24709 27273 ft 454 kts 230°
2026-05-04 15:23 40.13280 -76.27533 26614 ft 448 kts 232°
2026-05-04 15:24 40.09722 -76.33979 25183 ft 431 kts 245°
2026-05-04 15:24 40.06673 -76.40628 23942 ft 422 kts 245°
2026-05-04 15:25 40.05173 -76.43890 23259 ft 418 kts 245°
2026-05-04 15:25 40.03677 -76.47139 22560 ft 414 kts 245°
2026-05-04 15:25 40.02215 -76.50307 21941 ft 409 kts 245°
2026-05-04 15:26 39.99301 -76.56587 20676 ft 400 kts 244°
2026-05-04 15:26 39.97865 -76.59680 20087 ft 396 kts 244°
2026-05-04 15:26 39.95034 -76.65777 18853 ft 389 kts 244°
2026-05-04 15:27 39.93649 -76.68751 18260 ft 387 kts 244°
2026-05-04 15:27 39.90870 -76.74707 17009 ft 380 kts 244°
2026-05-04 15:28 39.88140 -76.80549 15834 ft 373 kts 244°
2026-05-04 15:28 39.86811 -76.83390 15242 ft 371 kts 244°
2026-05-04 15:28 39.84133 -76.89108 14072 ft 366 kts 243°
2026-05-04 15:29 39.82810 -76.91929 13447 ft 364 kts 243°
2026-05-04 15:30 39.77642 -77.02929 11682 ft 340 kts 243°
2026-05-04 15:30 39.74149 -77.10317 11355 ft 303 kts 243°
2026-05-04 15:31 39.72002 -77.14858 11110 ft 285 kts 243°
2026-05-04 15:31 39.70987 -77.17006 10973 ft 278 kts 243°
2026-05-04 15:32 39.67753 -77.23273 10057 ft 283 kts 230°
2026-05-04 15:32 39.64882 -77.26760 9544 ft 278 kts 228°
2026-05-04 15:33 39.62033 -77.30164 9446 ft 280 kts 227°
2026-05-04 15:34 39.57742 -77.35260 9067 ft 278 kts 224°
2026-05-04 15:34 39.56134 -77.36698 9007 ft 283 kts 217°
2026-05-04 15:34 39.52787 -77.39337 9003 ft 282 kts 217°
2026-05-04 15:35 39.49466 -77.41952 9006 ft 281 kts 217°
2026-05-04 15:35 39.47788 -77.43279 9001 ft 283 kts 216°
2026-05-04 15:35 39.46094 -77.44552 8999 ft 280 kts 211°
2026-05-04 15:36 39.42154 -77.45353 8907 ft 294 kts 184°
2026-05-04 15:36 39.40094 -77.45356 8603 ft 293 kts 184°
2026-05-04 15:36 39.38060 -77.45364 8268 ft 292 kts 184°
2026-05-04 15:37 39.36054 -77.45380 7952 ft 291 kts 185°
2026-05-04 15:37 39.34025 -77.45402 7643 ft 289 kts 185°
2026-05-04 15:37 39.32019 -77.45430 7330 ft 287 kts 185°
2026-05-04 15:37 39.30025 -77.45462 6993 ft 286 kts 184°
2026-05-04 15:38 39.28037 -77.45487 6685 ft 284 kts 185°
2026-05-04 15:38 39.26058 -77.45508 6391 ft 283 kts 184°
2026-05-04 15:38 39.24120 -77.45530 6130 ft 280 kts 185°
2026-05-04 15:38 39.22171 -77.45561 5824 ft 279 kts 185°
2026-05-04 15:39 39.20223 -77.45591 5395 ft 280 kts 185°
2026-05-04 15:39 39.18257 -77.45621 4698 ft 282 kts 184°
2026-05-04 15:39 39.14567 -77.45672 3717 ft 249 kts 183°
2026-05-04 15:40 39.12867 -77.45689 3432 ft 242 kts 184°
2026-05-04 15:40 39.11165 -77.45704 3100 ft 246 kts 184°
2026-05-04 15:40 39.09473 -77.45736 2771 ft 245 kts 184°
2026-05-04 15:40 39.07803 -77.45764 2449 ft 232 kts 185°
2026-05-04 15:41 39.06221 -77.45794 2208 ft 218 kts 185°
2026-05-04 15:41 39.04727 -77.45815 1897 ft 214 kts 185°
2026-05-04 15:41 39.03238 -77.45837 1554 ft 210 kts 186°
2026-05-04 15:41 39.01814 -77.45861 1291 ft 200 kts 185°
2026-05-04 15:42 39.00459 -77.45881 989 ft 189 kts 185°
2026-05-04 15:42 38.99214 -77.45899 747 ft 174 kts 185°
2026-05-04 15:42 38.98059 -77.45913 516 ft 158 kts 185°
2026-05-04 15:42 38.97016 -77.45925 327 ft 142 kts 181°
2026-05-04 15:43 38.96184 -77.45943 305 ft 82 kts 181°
2026-05-04 15:43 38.95832 -77.45953 308 ft 40 kts 182°
2026-05-04 15:43 38.95561 -77.45942 312 ft 38 kts 169°
2026-05-04 15:43 38.95333 -77.45799 308 ft 33 kts 147°
2026-05-04 15:44 38.95154 -77.45723 307 ft 25 kts 183°
2026-05-04 15:44 38.95034 -77.45661 308 ft 16 kts 121°
2026-05-04 15:44 38.95023 -77.45535 304 ft 14 kts 90°
2026-05-04 15:44 38.95018 -77.45405 304 ft 15 kts 93°
2026-05-04 15:45 38.95022 -77.45266 304 ft 16 kts 86°
2026-05-04 15:45 38.95018 -77.45117 304 ft 17 kts 95°
2026-05-04 15:45 38.95008 -77.44993 308 ft 2 kts 147°
2026-05-04 15:45 38.94980 -77.44998 308 ft 4 kts 201°
2026-05-04 15:46 38.94950 -77.45013 307 ft 6 kts 200°
2026-05-04 15:46 38.94931 -77.45022 308 ft 1 kts 200°